Regional Weather Roundup
Issued by NWS

Home | Current Version | Previous Version | Graphics & Text | Print | Product List | Glossary On
Versions: 1 2 3 4 5 6 7 8 9 10 11 12 13 14 15 16 17 18 19 20 21 22 23 24 25 26 27 28 29 30 31 32 33 34 35 36 37 38 39 40 41 42 43 44 45 46 47 48 49 50
000
ASUS45 KABQ 252110
RWRNM
NEW MEXICO REGIONAL WEATHER ROUNDUP
NATIONAL WEATHER SERVICE ALBUQUERQUE NM
300 PM MDT SAT MAR 25 2017

NOTE: "FAIR" MEANS FEW OR NO CLOUDS BELOW 12,000 FEET AGL WITH NO
       SIGNIFICANT WEATHER OR OBSTRUCTIONS TO VISION.

      THIS PRODUCT IS RELEASED AS TWO VERSIONS.  ONE VERSION NEAR
      THE TOP OF THE HOUR CONTAINING PRELIMINARY DATA FROM ALBUQUERQUE
      AND OTHER STATIONS.  A FINAL VERSION WITH ADDITIONAL DATA IS
      ISSUED ABOUT 10 MINUTES AFTER THE HOUR.

NMZ501-503-504-510>518-252200-
NORTHWEST PLATEAU/NORTHCENTRAL MOUNTAINS

CITY           SKY/WX    TMP DP  RH WIND       PRES   REMARKS
FARMINGTON     FAIR      64  13  13 S10       29.91F
LOS ALAMOS     FAIR      58  18  21 SE12      30.01F
SANTA FE       FAIR      61  20  20 SW9       29.98F
TAOS             N/A     59  25  27 SW14      30.00F
ANGEL FIRE     FAIR      54  21  28 W12G18    30.03F

$$
NMZ402-403-502-505>509-252200-
WESTCENTRAL MOUNTAINS/SOUTHWEST MOUNTAINS

CITY           SKY/WX    TMP DP  RH WIND       PRES   REMARKS
GALLUP         FAIR      65  16  15 SW15G28   29.98F
GRANTS         FAIR      66  11  11 SW16G22   29.97F
SILVER CITY    FAIR      69  15  12 SW10G20   30.02F

$$
NMZ407-409-411-412-252200-
SOUTHERN DESERTS

CITY           SKY/WX    TMP DP  RH WIND       PRES   REMARKS
DEMING         FAIR      74  17  11 SW8       29.97F
LAS CRUCES     FAIR      75  16  11 S8G18     30.00F
HOLLOMAN AFB   FAIR      74  22  14 S17G23    29.99F
ALAMOGORDO     FAIR      72  27  18 S15       29.98F
T OR C         FAIR      72  17  12 S22G33    29.93F

$$
NMZ519>523-252200-
CENTRAL VALLEYS/CENTRAL HIGHLANDS

CITY           SKY/WX    TMP DP  RH WIND       PRES   REMARKS
ALBUQUERQUE    PTSUNNY   64  18  17 S8        29.96F
DOUBLE EAGLE   PTSUNNY   63  21  20 SE12G21   29.98F
MORIARTY ARPT  FAIR      72  13  10 W12       29.98F
CLINES CORNERS FAIR      64  14  14 W18       30.01F
BELEN          FAIR      69  17  14 S16G24    29.94F
SOCORRO        FAIR      72  20  14 S15G25    29.94F

$$
NMZ524>526-539-540-252200-
SOUTHCENTRAL MOUNTAINS

CITY           SKY/WX    TMP DP  RH WIND       PRES   REMARKS
RUIDOSO        FAIR      68  14  12 S17G25    30.05F

$$
NMZ527>531-252200-
NORTHEAST HIGHLANDS/NORTHEAST PLAINS

CITY           SKY/WX    TMP DP  RH WIND       PRES   REMARKS
LAS VEGAS      FAIR      68   6   9 SW22G29   29.97F
RATON          FAIR      58  29  33 S8        29.95F
CLAYTON        FAIR      67  27  22 S8G20     29.94F

$$
NMZ532>537-252200-
EASTCENTRAL PLAINS

CITY           SKY/WX    TMP DP  RH WIND       PRES   REMARKS
TUCUMCARI      FAIR      74  24  15 SW12G21   29.90F
CANNON AFB     FAIR      71  25  17 S13G21    29.95F
CLOVIS AIRPORT FAIR      72  30  21 SW16      29.96F

$$
NMZ028-029-538-252200-
SOUTHEAST PLAINS

CITY           SKY/WX    TMP DP  RH WIND       PRES   REMARKS
ROSWELL        FAIR      76  28  17 S14G25    29.95
ARTESIA        FAIR      75  32  20 SE24      29.93F
CARLSBAD       FAIR      76  28  17 S22G29    29.93F
HOBBS          SUNNY     72  28  20 SE14G20   30.01F


$$



USA.gov is the U.S. government's official web portal to all federal, state and local government web resources and services.